Tracking 19794 objects as of 22-Jul-2019
HD Live streaming from Space Station
objects crossing your sky now

O3B PFM

Track O3B PFM now!
10-day predictions
O3B PFM is classified as:


NORAD ID: 39191
Int'l Code: 2013-031D
Perigee: 8,070.5 km
Apogee: 8,075.5 km
Inclination: 0.1 °
Period: 287.9 minutes
Semi major axis: 14444 km
RCS: Unknown
Launch date: June 25, 2013
Source: O3b Networks (O3B)
Launch site: FRENCH GUIANA (FRGUI)

O3b satellites will reach customers across the planet between 45 degrees north and south latitude. O3b offers the benefits of fiber-optic lines without the costs to maintain them.
aabbcc
Your satellite tracking list
Your tracking list is empty




NASA's NSSDC Master Catalog

Two Line Element Set (TLE):
1 39191U 13031D   19201.98100520 -.00000026 +00000-0 +00000-0 0  9998
2 39191 000.0517 006.8895 0001712 087.2104 265.9173 05.00116016110800
Source of the keplerian elements: AFSPC